,,PA_Meas_PMT16A,,PR_Meas_QMR101_102,,RH_Meas_QMH101,,SR_Meas_QMS101,,TA_Meas_QMH101,,GenWind,,GenWind,
time,status,PA,status,PR,status,RH,status,SR,status,TA,status,DirAvg,status,SpdAvg,
2016-01-26, 07:43:04,INVALID - VALUE NOT AVAILABLE,0,INVALID - VALUE NOT AVAILABLE,0,INVALID - VALUE NOT AVAILABLE,0,INVALID - VALUE NOT AVAILABLE,0,INVALID - VALUE NOT AVAILABLE,0,INVALID,360,INVALID,0,
2016-01-26, 08:14:04,VALID,919.857,VALID,0,VALID,96.6954,VALID,89.8208,VALID,20.969,VALID,138,VALID,0.983984,
2016-01-26, 08:15:04,VALID,919.933,VALID,0,VALID,96.3829,VALID,84.8785,VALID,20.969,VALID,140,VALID,1.84531,
2016-01-26, 08:28:04,VALID,920.162,VALID,0,VALID,90.7415,VALID,114.21,VALID,21.2242,VALID,153,VALID,0.933594,
2016-01-26, 08:29:04,VALID,920.144,VALID,0,VALID,88.3706,VALID,108.838,VALID,21.2437,VALID,93,VALID,3.06016,
2016-01-26, 08:34:04,VALID,920.214,VALID,0,VALID,83.789,VALID,121.731,VALID,21.4973,VALID,77,VALID,1.96641,
2016-01-26, 08:35:04,VALID,920.22,VALID,0,VALID,84.01,VALID,151.492,VALID,21.5363,VALID,115,VALID,0.707031,
2016-01-26, 08:36:04,VALID,920.244,VALID,0,VALID,84.5513,VALID,122.375,VALID,21.5737,VALID,83,VALID,0.380469,
2016-01-26, 08:37:04,VALID,920.221,VALID,0,VALID,83.9567,VALID,115.284,VALID,21.6339,VALID,79,VALID,0.821875,
2016-01-26, 08:38:04,VALID,920.19,VALID,0,VALID,82.7674,VALID,107.226,VALID,21.6729,VALID,49,VALID,0.381641,
2016-01-26, 08:42:04,VALID,920.273,VALID,0,VALID,82.6607,VALID,102.284,VALID,21.7103,VALID,128,VALID,1.58906,
2016-01-26, 08:43:04,VALID,920.3,VALID,0,VALID,81.9975,VALID,128.929,VALID,21.751,VALID,86,VALID,2.22227,
2016-01-26, 08:44:04,VALID,920.325,VALID,0,VALID,81.4333,VALID,132.905,VALID,21.7705,VALID,97,VALID,0,
2016-01-26, 08:45:04,VALID,920.354,VALID,0,VALID,81.6087,VALID,117.756,VALID,21.7883,VALID,141,VALID,2.50977,
2016-01-26, 08:55:04,VALID,920.481,VALID,0,VALID,81.0826,VALID,120.227,VALID,21.8469,VALID,155,VALID,1.25039,
2016-01-26, 08:56:04,VALID,920.518,VALID,0,VALID,81.2809,VALID,129.789,VALID,21.8664,VALID,130,VALID,1.26875,
2016-01-26, 08:57:04,VALID,920.489,VALID,0,VALID,82.0432,VALID,151.814,VALID,21.8859,VALID,74,VALID,0.0417969,
2016-01-26, 08:58:04,VALID,920.509,VALID,0,VALID,82.0813,VALID,140.64,VALID,21.8842,VALID,113,VALID,1.37031,
2016-01-26, 08:59:04,VALID,920.481,VALID,0,VALID,81.3266,VALID,133.764,VALID,21.9249,VALID,120,VALID,1.67305,
2016-01-26, 09:00:04,VALID,920.444,VALID,0,VALID,79.3903,VALID,141.822,VALID,21.9428,VALID,61,VALID,2.10039,
2016-01-26, 09:01:04,VALID,920.519,VALID,0,VALID,80.0001,VALID,137.417,VALID,22.0225,VALID,150,VALID,2.18555,
2016-01-26, 09:02:04,VALID,920.492,VALID,0,VALID,79.8324,VALID,144.616,VALID,22.0208,VALID,112,VALID,1.52656,
2016-01-26, 09:03:04,VALID,920.549,VALID,0,VALID,80.5414,VALID,151.707,VALID,22.081,VALID,86,VALID,0.0746094,
2016-01-26, 09:04:04,VALID,920.495,VALID,0,VALID,79.253,VALID,157.186,VALID,22.1396,VALID,132,VALID,1.71875,
2016-01-26, 09:05:04,VALID,920.514,VALID,0,VALID,79.9239,VALID,162.344,VALID,22.1379,VALID,129,VALID,1.83594,
2016-01-26, 09:06:04,VALID,920.575,VALID,0,VALID,79.4665,VALID,175.989,VALID,22.1769,VALID,128,VALID,2.51289,
2016-01-26, 09:07:04,VALID,920.542,VALID,0,VALID,79.436,VALID,176.526,VALID,22.2176,VALID,156,VALID,1.67031,
2016-01-26, 09:08:04,VALID,920.506,VALID,0,VALID,79.2988,VALID,146.979,VALID,22.2159,VALID,132,VALID,1.75937,
2016-01-26, 09:09:04,VALID,920.494,VALID,0,VALID,79.0243,VALID,132.797,VALID,22.2354,VALID,136,VALID,2.33203,
2016-01-26, 09:10:04,VALID,920.475,VALID,0,VALID,79.9163,VALID,120.549,VALID,22.2371,VALID,97,VALID,1.00742,
2016-01-26, 09:11:04,VALID,920.494,VALID,0,VALID,78.3763,VALID,120.549,VALID,22.2371,VALID,176,VALID,1.74336,
2016-01-26, 09:12:04,VALID,920.493,VALID,0,VALID,78.9481,VALID,131.293,VALID,22.2567,VALID,94,VALID,0.687109,
2016-01-26, 09:13:04,VALID,920.476,VALID,0,VALID,78.8642,VALID,118.508,VALID,22.2762,VALID,150,VALID,1.44609,
2016-01-26, 09:15:04,VALID,920.54,VALID,0,VALID,78.8337,VALID,121.946,VALID,22.2957,VALID,92,VALID,1.80859,
2016-01-26, 09:16:04,VALID,920.515,VALID,0,VALID,80.3508,VALID,126.995,VALID,22.2762,VALID,49,VALID,3.23242,
2016-01-26, 09:17:04,VALID,920.458,VALID,0,VALID,78.9176,VALID,141.607,VALID,22.2176,VALID,74,VALID,3.34609,
2016-01-26, 09:18:04,VALID,920.584,VALID,0,VALID,79.7714,VALID,158.261,VALID,22.2159,VALID,123,VALID,0.716406,
2016-01-26, 09:19:04,VALID,920.576,VALID,0,VALID,79.1844,VALID,157.186,VALID,22.2354,VALID,135,VALID,0.260938,
2016-01-26, 09:20:04,VALID,920.568,VALID,0,VALID,79.7409,VALID,146.442,VALID,22.2957,VALID,146,VALID,1.99844,
2016-01-26, 09:21:04,VALID,920.528,VALID,0,VALID,79.2378,VALID,133.979,VALID,22.2957,VALID,106,VALID,1.64648,
2016-01-26, 09:22:04,VALID,920.558,VALID,0,VALID,78.8185,VALID,140.533,VALID,22.2957,VALID,150,VALID,2.5582,
2016-01-26, 09:23:04,VALID,920.542,VALID,0,VALID,79.1082,VALID,146.979,VALID,22.2957,VALID,132,VALID,2.95352,
2016-01-26, 09:24:04,VALID,920.516,VALID,0,VALID,77.9647,VALID,140.318,VALID,22.2745,VALID,178,VALID,2.8875,
2016-01-26, 09:25:04,VALID,920.542,VALID,0,VALID,78.8185,VALID,156.112,VALID,22.3135,VALID,149,VALID,0,
2016-01-26, 09:26:04,VALID,920.473,VALID,0,VALID,78.5364,VALID,169.435,VALID,22.4128,VALID,184,VALID,0.214844,
2016-01-26, 09:27:04,VALID,920.533,VALID,0,VALID,79.4207,VALID,152.781,VALID,22.4518,VALID,84,VALID,1.29531,
2016-01-26, 09:28:04,VALID,920.534,VALID,0,VALID,78.9176,VALID,142.789,VALID,22.4111,VALID,121,VALID,1.64961,
2016-01-26, 09:29:04,VALID,920.472,VALID,0,VALID,77.3014,VALID,143.649,VALID,22.4128,VALID,134,VALID,2.32578,
2016-01-26, 09:30:04,VALID,920.55,VALID,0,VALID,78.6279,VALID,158.153,VALID,22.3916,VALID,88,VALID,2.28008,
2016-01-26, 09:31:04,VALID,920.578,VALID,0,VALID,79.1692,VALID,173.732,VALID,22.4128,VALID,173,VALID,0.526563,
2016-01-26, 09:32:04,VALID,920.504,VALID,0,VALID,78.4373,VALID,164.492,VALID,22.4111,VALID,134,VALID,2.16055,
2016-01-26, 09:33:04,VALID,920.557,VALID,0,VALID,79.0472,VALID,156.757,VALID,22.4713,VALID,89,VALID,1.91133,
2016-01-26, 09:34:04,VALID,920.607,VALID,0,VALID,79.9239,VALID,139.351,VALID,22.4518,VALID,118,VALID,2.73711,
2016-01-26, 09:35:04,VALID,920.612,VALID,0,VALID,78.7804,VALID,135.054,VALID,22.4128,VALID,97,VALID,1.6668,
2016-01-26, 09:36:04,VALID,920.598,VALID,0,VALID,77.9113,VALID,156.757,VALID,22.3916,VALID,68,VALID,2.125,
2016-01-26, 09:37:04,VALID,920.632,VALID,0,VALID,78.262,VALID,186.41,VALID,22.4323,VALID,103,VALID,0.371094,
2016-01-26, 09:38:04,VALID,920.59,VALID,0,VALID,78.2315,VALID,168.253,VALID,22.4111,VALID,125,VALID,1.60156,
2016-01-26, 09:39:04,VALID,920.599,VALID,0,VALID,78.4831,VALID,151.062,VALID,22.4306,VALID,169,VALID,2.49922,
2016-01-26, 09:40:04,VALID,920.607,VALID,0,VALID,77.9571,VALID,158.368,VALID,22.4518,VALID,116,VALID,1.24336,
2016-01-26, 09:41:04,VALID,920.682,VALID,0,VALID,79.1387,VALID,149.88,VALID,22.4696,VALID,109,VALID,2.04063,
2016-01-26, 09:42:04,VALID,920.684,VALID,0,VALID,77.6445,VALID,154.178,VALID,22.4501,VALID,129,VALID,3.45391,
2016-01-26, 09:43:04,VALID,920.612,VALID,0,VALID,78.2772,VALID,160.625,VALID,22.4713,VALID,100,VALID,3.47656,
2016-01-26, 09:44:04,VALID,920.654,VALID,0,VALID,78.3687,VALID,152.889,VALID,22.4501,VALID,99,VALID,1.8625,
2016-01-26, 09:45:04,VALID,920.664,VALID,0,VALID,78.5288,VALID,147.946,VALID,22.4501,VALID,127,VALID,1.65078,
2016-01-26, 09:46:04,VALID,920.673,VALID,0,VALID,78.8642,VALID,153.963,VALID,22.4501,VALID,112,VALID,1.99414,
2016-01-26, 09:47:04,VALID,920.648,VALID,0,VALID,78.727,VALID,163.848,VALID,22.4696,VALID,111,VALID,0.985937,
2016-01-26, 09:48:04,VALID,920.696,VALID,0,VALID,79.5732,VALID,169.22,VALID,22.4891,VALID,68,VALID,2.04414,
2016-01-26, 09:49:04,VALID,920.704,VALID,0,VALID,79.8705,VALID,184.691,VALID,22.4891,VALID,119,VALID,0.296484,
2016-01-26, 09:50:04,VALID,920.683,VALID,0,VALID,79.558,VALID,195.865,VALID,22.5672,VALID,84,VALID,0.980469,
2016-01-26, 09:52:04,VALID,920.643,VALID,0,VALID,78.5517,VALID,174.484,VALID,22.6257,VALID,130,VALID,1.14375,
2016-01-26, 09:53:04,VALID,920.684,VALID,0,VALID,79.3674,VALID,196.94,VALID,22.6647,VALID,61,VALID,1.14023,
2016-01-26, 09:54:04,VALID,920.664,VALID,0,VALID,78.3458,VALID,234.974,VALID,22.6843,VALID,154,VALID,0.851953,
2016-01-26, 09:55:04,VALID,920.678,VALID,0,VALID,77.4539,VALID,251.842,VALID,22.6843,VALID,147,VALID,2.35977,
2016-01-26, 09:56:04,VALID,920.678,VALID,0,VALID,76.783,VALID,310.827,VALID,22.6647,VALID,134,VALID,2.83555,
2016-01-26, 09:57:04,VALID,920.681,VALID,0,VALID,78.6279,VALID,293.422,VALID,22.6843,VALID,129,VALID,2.26211,
2016-01-26, 09:58:04,VALID,920.692,VALID,0,VALID,77.5606,VALID,243.354,VALID,22.7233,VALID,144,VALID,2.68945,
2016-01-26, 09:59:04,VALID,920.657,VALID,0,VALID,78.6965,VALID,265.702,VALID,22.7623,VALID,115,VALID,0.55,
2016-01-26, 10:00:04,VALID,920.641,VALID,0,VALID,78.9405,VALID,249.908,VALID,22.8209,VALID,80,VALID,1.76367,
2016-01-26, 10:01:04,VALID,920.646,VALID,0,VALID,78.445,VALID,287.083,VALID,22.9185,VALID,117,VALID,0.755859,
2016-01-26, 10:02:04,VALID,920.539,VALID,0,VALID,76.2494,VALID,291.81,VALID,22.9575,VALID,134,VALID,0.129688,
2016-01-26, 10:03:04,VALID,920.594,VALID,0,VALID,77.5378,VALID,303.844,VALID,23.0356,VALID,132,VALID,0.480859,
2016-01-26, 10:04:04,VALID,920.538,VALID,0,VALID,75.1821,VALID,235.941,VALID,23.0338,VALID,115,VALID,2.32734,
2016-01-26, 10:05:04,VALID,920.522,VALID,0,VALID,77.2481,VALID,482.088,VALID,23.1314,VALID,185,VALID,1.18555,
2016-01-26, 10:06:04,VALID,920.492,VALID,0,VALID,77.1261,VALID,362.399,VALID,23.307,VALID,74,VALID,2.13867,
2016-01-26, 10:07:04,VALID,920.54,VALID,0,VALID,77.3091,VALID,285.579,VALID,23.5821,VALID,130,VALID,0.475,
2016-01-26, 10:08:04,VALID,920.538,VALID,0,VALID,74.2368,VALID,273.008,VALID,23.7187,VALID,159,VALID,2.64766,
2016-01-26, 10:09:04,VALID,920.506,VALID,0,VALID,73.7794,VALID,296.108,VALID,23.6992,VALID,163,VALID,0.585156,
2016-01-26, 10:10:04,VALID,920.52,VALID,0,VALID,74.8772,VALID,245.073,VALID,23.6016,VALID,135,VALID,2.59961,
2016-01-26, 10:11:04,VALID,920.561,VALID,0,VALID,74.9687,VALID,206.287,VALID,23.4845,VALID,138,VALID,0.923437,
2016-01-26, 10:12:04,VALID,920.534,VALID,0,VALID,75.0602,VALID,199.518,VALID,23.3869,VALID,133,VALID,1.01953,
2016-01-26, 10:13:04,VALID,920.489,VALID,0,VALID,74.5113,VALID,249.801,VALID,23.3674,VALID,133,VALID,0,
2016-01-26, 10:14:04,VALID,920.456,VALID,0,VALID,74.0844,VALID,232.073,VALID,23.3674,VALID,217,VALID,1.12617,
2016-01-26, 10:15:04,VALID,920.47,VALID,0,VALID,74.7857,VALID,223.37,VALID,23.3674,VALID,220,VALID,0.579297,
2016-01-26, 10:16:04,VALID,920.478,VALID,0,VALID,73.8785,VALID,237.015,VALID,23.3265,VALID,152,VALID,3.1375,
2016-01-26, 10:17:04,VALID,920.418,VALID,0,VALID,73.9929,VALID,249.586,VALID,23.229,VALID,145,VALID,2.69609,
2016-01-26, 10:18:04,VALID,920.422,VALID,0,VALID,75.5862,VALID,222.188,VALID,23.2485,VALID,97,VALID,1.00977,
2016-01-26, 10:19:04,VALID,920.484,VALID,0,VALID,76.1656,VALID,220.792,VALID,23.229,VALID,145,VALID,1.73086,
2016-01-26, 10:20:04,VALID,920.411,VALID,0,VALID,74.618,VALID,221.866,VALID,23.2502,VALID,163,VALID,1.70547,
2016-01-26, 10:21:04,VALID,920.422,VALID,0,VALID,75.609,VALID,253.131,VALID,23.2502,VALID,126,VALID,1.15039,
2016-01-26, 10:22:04,VALID,920.48,VALID,0,VALID,76.0512,VALID,259.041,VALID,23.229,VALID,132,VALID,1.93242,
2016-01-26, 10:23:04,VALID,920.455,VALID,0,VALID,76.0893,VALID,226.271,VALID,23.2485,VALID,123,VALID,0.603516,
2016-01-26, 10:24:04,VALID,920.456,VALID,0,VALID,75.6395,VALID,220.899,VALID,23.2875,VALID,132,VALID,0.725391,
2016-01-26, 10:25:04,VALID,920.468,VALID,0,VALID,75.6167,VALID,229.387,VALID,23.3265,VALID,74,VALID,1.68828,
2016-01-26, 10:26:04,VALID,920.499,VALID,0,VALID,75.7081,VALID,227.023,VALID,23.3248,VALID,96,VALID,2.19375,
2016-01-26, 10:27:04,VALID,920.468,VALID,0,VALID,76.0588,VALID,219.61,VALID,23.3656,VALID,104,VALID,0.672266,
2016-01-26, 10:28:04,VALID,920.413,VALID,0,VALID,74.5875,VALID,229.172,VALID,23.4454,VALID,161,VALID,0,
2016-01-26, 10:29:04,VALID,920.498,VALID,0,VALID,73.8557,VALID,252.916,VALID,23.4845,VALID,139,VALID,1.82539,
2016-01-26, 10:30:04,VALID,920.436,VALID,0,VALID,74.9382,VALID,345.961,VALID,23.3656,VALID,52,VALID,3.33711,
2016-01-26, 10:31:04,VALID,920.421,VALID,0,VALID,74.5646,VALID,397.747,VALID,23.3656,VALID,108,VALID,3.69375,
2016-01-26, 10:32:04,VALID,920.465,VALID,0,VALID,74.4198,VALID,364.87,VALID,23.4241,VALID,103,VALID,2.94297,
2016-01-26, 10:33:04,VALID,920.42,VALID,0,VALID,75.2965,VALID,330.919,VALID,23.4437,VALID,76,VALID,1.64805,
2016-01-26, 10:34:04,VALID,920.33,VALID,0,VALID,76.0359,VALID,937.746,VALID,23.4632,VALID,50,VALID,3.43555,
2016-01-26, 10:35:04,VALID,920.418,VALID,0,VALID,75.8377,VALID,346.068,VALID,23.5803,VALID,113,VALID,2.14258,
2016-01-26, 10:36:04,VALID,920.395,VALID,0,VALID,74.214,VALID,755.204,VALID,23.6388,VALID,148,VALID,1.7793,
2016-01-26, 10:37:04,VALID,920.38,VALID,0,VALID,74.8391,VALID,964.392,VALID,23.8536,VALID,166,VALID,1.41992,
2016-01-26, 10:38:04,VALID,920.398,VALID,0,VALID,73.4669,VALID,957.408,VALID,24.0488,VALID,173,VALID,3.5,
2016-01-26, 10:39:04,VALID,920.333,VALID,0,VALID,74.4884,VALID,511.85,VALID,24.283,VALID,48,VALID,5.1625,
2016-01-26, 10:40:04,VALID,920.326,VALID,0,VALID,71.3399,VALID,753.055,VALID,24.2421,VALID,74,VALID,3.11172,
2016-01-26, 10:41:04,VALID,920.36,VALID,0,VALID,74.5799,VALID,841.049,VALID,24.2812,VALID,134,VALID,0.489844,
2016-01-26, 10:42:04,VALID,920.345,VALID,0,VALID,71.6449,VALID,451.897,VALID,24.3788,VALID,135,VALID,4.73359,
2016-01-26, 10:43:04,VALID,920.398,VALID,0,VALID,72.9103,VALID,346.175,VALID,24.2617,VALID,96,VALID,1.39727,
2016-01-26, 10:44:04,VALID,920.346,VALID,0,VALID,73.1848,VALID,295.785,VALID,24.3398,VALID,54,VALID,1.04609,
2016-01-26, 10:45:04,VALID,920.387,VALID,0,VALID,72.392,VALID,319.852,VALID,24.2617,VALID,121,VALID,1.97305,
2016-01-26, 10:46:04,VALID,920.321,VALID,0,VALID,74.3207,VALID,585.554,VALID,24.2421,VALID,123,VALID,1.0457,
2016-01-26, 10:47:04,VALID,920.339,VALID,0,VALID,72.5597,VALID,550.314,VALID,24.1854,VALID,107,VALID,1.67891,
2016-01-26, 10:48:04,VALID,920.311,VALID,0,VALID,71.6144,VALID,1042.5,VALID,24.2245,VALID,109,VALID,2.46602,
2016-01-26, 10:49:04,VALID,920.316,VALID,0,VALID,72.2166,VALID,986.31,VALID,24.283,VALID,116,VALID,2.07969,
2016-01-26, 10:50:04,VALID,920.271,VALID,0,VALID,73.4669,VALID,296.108,VALID,24.3788,VALID,105,VALID,0.58125,
2016-01-26, 10:51:04,VALID,920.255,VALID,0,VALID,72.0794,VALID,291.595,VALID,24.4197,VALID,137,VALID,2.66953,
2016-01-26, 10:52:04,VALID,920.238,VALID,0,VALID,71.5991,VALID,587.811,VALID,24.3221,VALID,139,VALID,2.14336,
2016-01-26, 10:53:04,VALID,920.256,VALID,0,VALID,72.27,VALID,280.636,VALID,24.244,VALID,126,VALID,0.684375,
2016-01-26, 10:54:04,VALID,920.265,VALID,0,VALID,72.6664,VALID,830.95,VALID,24.2635,VALID,129,VALID,1.70195,
2016-01-26, 10:55:04,VALID,920.208,VALID,0,VALID,73.1848,VALID,359.498,VALID,24.244,VALID,126,VALID,1.55352,
2016-01-26, 10:56:04,VALID,920.152,VALID,0,VALID,71.6906,VALID,368.738,VALID,24.2617,VALID,42,VALID,3.41133,
2016-01-26, 10:57:04,VALID,920.125,VALID,0,VALID,72.6359,VALID,359.068,VALID,24.3416,VALID,70,VALID,0.875,
2016-01-26, 10:58:04,VALID,920.1,VALID,0,VALID,71.2561,VALID,368.738,VALID,24.2031,VALID,135,VALID,3.25703,
2016-01-26, 10:59:04,VALID,920.147,VALID,0,VALID,73.8557,VALID,588.025,VALID,24.2049,VALID,116,VALID,0.600781,
2016-01-26, 11:00:04,VALID,920.039,VALID,0,VALID,71.5076,VALID,370.027,VALID,24.1445,VALID,79,VALID,3.71914,
2016-01-26, 11:01:04,VALID,920.111,VALID,0,VALID,72.3005,VALID,844.487,VALID,24.125,VALID,127,VALID,2.14375,
2016-01-26, 11:02:04,VALID,920.054,VALID,0,VALID,72.5063,VALID,288.909,VALID,24.1836,VALID,112,VALID,1.1457,
2016-01-26, 11:03:04,VALID,919.96,VALID,0,VALID,73.1924,VALID,356.167,VALID,24.1836,VALID,75,VALID,3.25977,
2016-01-26, 11:04:04,VALID,920.048,VALID,0,VALID,72.4301,VALID,327.158,VALID,24.1854,VALID,112,VALID,1.55234,
2016-01-26, 11:05:04,VALID,920.004,VALID,0,VALID,72.5825,VALID,291.595,VALID,24.2226,VALID,115,VALID,0,
2016-01-26, 11:06:04,VALID,919.934,VALID,0,VALID,71.9879,VALID,305.133,VALID,24.2812,VALID,120,VALID,1.80078,
2016-01-26, 11:07:04,VALID,919.957,VALID,0,VALID,71.7516,VALID,957.516,VALID,24.1836,VALID,122,VALID,1.45508,
2016-01-26, 11:08:04,VALID,919.906,VALID,0,VALID,73.2229,VALID,349.721,VALID,24.2226,VALID,48,VALID,0.188281,
2016-01-26, 11:09:04,VALID,919.921,VALID,0,VALID,71.2561,VALID,339.944,VALID,24.3983,VALID,141,VALID,0.894531,
2016-01-26, 11:10:04,VALID,919.906,VALID,0,VALID,72.4453,VALID,328.018,VALID,24.3398,VALID,124,VALID,1.24961,
2016-01-26, 11:11:04,VALID,919.918,VALID,0,VALID,71.7211,VALID,348.432,VALID,24.2812,VALID,111,VALID,2.14961,
2016-01-26, 11:12:04,VALID,919.903,VALID,0,VALID,73.0476,VALID,330.167,VALID,24.2421,VALID,82,VALID,2.71016,
2016-01-26, 11:13:04,VALID,919.877,VALID,0,VALID,70.9435,VALID,255.602,VALID,24.2421,VALID,94,VALID,2.20703,
2016-01-26, 11:14:04,VALID,919.923,VALID,0,VALID,72.2319,VALID,362.614,VALID,24.2031,VALID,121,VALID,1.9918,
2016-01-26, 11:15:04,VALID,919.827,VALID,0,VALID,71.6449,VALID,944.945,VALID,24.2226,VALID,56,VALID,4.69492,
2016-01-26, 11:16:04,VALID,919.845,VALID,0,VALID,72.9332,VALID,253.669,VALID,24.4764,VALID,117,VALID,0.794531,
2016-01-26, 11:17:04,VALID,919.862,VALID,0,VALID,71.561,VALID,294.066,VALID,24.5545,VALID,155,VALID,1.57969,
2016-01-26, 11:18:04,VALID,919.856,VALID,0,VALID,70.8139,VALID,272.471,VALID,24.6131,VALID,58,VALID,2.625,
2016-01-26, 11:19:04,VALID,919.849,VALID,0,VALID,69.9296,VALID,611.233,VALID,24.5545,VALID,113,VALID,2.04375,
2016-01-26, 11:20:04,VALID,919.799,VALID,0,VALID,70.0897,VALID,264.305,VALID,24.4764,VALID,66,VALID,3.01836,
2016-01-26, 11:21:04,VALID,919.804,VALID,0,VALID,71.6296,VALID,243.354,VALID,24.4374,VALID,62,VALID,1.76641,
2016-01-26, 11:22:04,VALID,919.815,VALID,0,VALID,73.0933,VALID,271.504,VALID,24.4374,VALID,97,VALID,1.02891,
2016-01-26, 11:23:04,VALID,919.783,VALID,0,VALID,73.627,VALID,319.423,VALID,24.4355,VALID,147,VALID,0,
2016-01-26, 11:24:04,VALID,919.725,VALID,0,VALID,71.8126,VALID,286.975,VALID,24.4745,VALID,123,VALID,1.86211,
2016-01-26, 11:25:04,VALID,919.779,VALID,0,VALID,71.0197,VALID,276.661,VALID,24.4569,VALID,97,VALID,2.46914,
2016-01-26, 11:26:04,VALID,919.709,VALID,0,VALID,72.4529,VALID,285.686,VALID,24.3398,VALID,66,VALID,2.09414,
2016-01-26, 11:27:04,VALID,919.752,VALID,0,VALID,73.4135,VALID,305.455,VALID,24.3007,VALID,143,VALID,1.64531,
2016-01-26, 11:28:04,VALID,919.704,VALID,0,VALID,71.9727,VALID,330.596,VALID,24.2812,VALID,146,VALID,1.98789,
2016-01-26, 11:29:04,VALID,919.71,VALID,0,VALID,71.5076,VALID,329.415,VALID,24.3202,VALID,137,VALID,1.30703,
2016-01-26, 11:30:04,VALID,919.709,VALID,0,VALID,71.3552,VALID,314.48,VALID,24.3788,VALID,57,VALID,1.38516,
2016-01-26, 11:31:04,VALID,919.714,VALID,0,VALID,72.3843,VALID,288.372,VALID,24.3965,VALID,116,VALID,1.29805,
2016-01-26, 11:32:04,VALID,919.73,VALID,0,VALID,72.3157,VALID,336.291,VALID,24.416,VALID,121,VALID,2.10313,
2016-01-26, 11:33:04,VALID,919.687,VALID,0,VALID,71.1417,VALID,273.76,VALID,24.3769,VALID,97,VALID,1.42617,
2016-01-26, 11:34:04,VALID,919.719,VALID,0,VALID,72.1556,VALID,250.66,VALID,24.4178,VALID,148,VALID,0.755469,
2016-01-26, 11:35:04,VALID,919.723,VALID,0,VALID,73.3525,VALID,246.148,VALID,24.4178,VALID,89,VALID,1.0832,
2016-01-26, 11:36:04,VALID,919.682,VALID,0,VALID,71.683,VALID,270.859,VALID,24.3769,VALID,92,VALID,2.48906,
2016-01-26, 11:37:04,VALID,919.677,VALID,0,VALID,72.6816,VALID,241.957,VALID,24.3593,VALID,70,VALID,2.39844,
2016-01-26, 11:38:04,VALID,919.658,VALID,0,VALID,72.8875,VALID,191.245,VALID,24.3379,VALID,101,VALID,1.12227,
2016-01-26, 11:39:04,VALID,919.637,VALID,0,VALID,74.1453,VALID,172.765,VALID,24.3379,VALID,74,VALID,1.17969,
2016-01-26, 11:40:04,VALID,919.626,VALID,0,VALID,72.1404,VALID,173.732,VALID,24.3788,VALID,165,VALID,1.5625,
2016-01-26, 11:41:04,VALID,919.62,VALID,0,VALID,72.2776,VALID,192.105,VALID,24.3593,VALID,128,VALID,1.9,
2016-01-26, 11:42:04,VALID,919.601,VALID,0,VALID,71.9422,VALID,221.759,VALID,24.3007,VALID,116,VALID,1.00664,
2016-01-26, 11:43:04,VALID,919.594,VALID,0,VALID,72.5825,VALID,223.585,VALID,24.3007,VALID,114,VALID,0.009375,
2016-01-26, 11:44:04,VALID,919.569,VALID,0,VALID,71.2713,VALID,208.436,VALID,24.3202,VALID,130,VALID,0.307422,
2016-01-26, 11:45:04,VALID,919.54,VALID,0,VALID,72.9485,VALID,196.188,VALID,24.2812,VALID,76,VALID,0.363672,
2016-01-26, 11:46:04,VALID,919.529,VALID,0,VALID,72.9561,VALID,189.419,VALID,24.3202,VALID,65,VALID,3.16523,
2016-01-26, 11:47:04,VALID,919.531,VALID,0,VALID,72.0413,VALID,193.609,VALID,24.3007,VALID,112,VALID,0.0328125,
2016-01-26, 11:48:04,VALID,919.547,VALID,0,VALID,72.5216,VALID,187.7,VALID,24.3007,VALID,141,VALID,0.451172,
2016-01-26, 11:49:04,VALID,919.519,VALID,0,VALID,72.1785,VALID,174.699,VALID,24.3202,VALID,163,VALID,0.000390625,
2016-01-26, 11:50:04,VALID,919.511,VALID,0,VALID,73.1162,VALID,172.55,VALID,24.4178,VALID,33,VALID,0,
2016-01-26, 11:51:04,VALID,919.545,VALID,0,VALID,72.2395,VALID,170.294,VALID,24.4959,VALID,33,VALID,0,
2016-01-26, 11:52:04,VALID,919.512,VALID,0,VALID,71.4009,VALID,166.964,VALID,24.4178,VALID,159,VALID,1.19883,
2016-01-26, 11:53:04,VALID,919.46,VALID,0,VALID,71.035,VALID,167.608,VALID,24.3416,VALID,157,VALID,0.174609,
2016-01-26, 11:54:04,VALID,919.468,VALID,0,VALID,72.5216,VALID,162.558,VALID,24.3788,VALID,69,VALID,0,
2016-01-26, 11:55:04,VALID,919.506,VALID,0,VALID,71.1265,VALID,150.847,VALID,24.4178,VALID,48,VALID,0,
2016-01-26, 11:56:04,VALID,919.494,VALID,0,VALID,71.8431,VALID,146.12,VALID,24.4959,VALID,27,VALID,0.121875,
2016-01-26, 11:57:04,VALID,919.491,VALID,0,VALID,71.805,VALID,166.319,VALID,24.535,VALID,22,VALID,0.159766,
2016-01-26, 11:58:04,VALID,919.448,VALID,0,VALID,72.0337,VALID,207.039,VALID,24.5155,VALID,52,VALID,2.025,
2016-01-26, 11:59:04,VALID,919.513,VALID,0,VALID,74.2521,VALID,249.371,VALID,24.4178,VALID,97,VALID,1.39102,
2016-01-26, 12:00:04,VALID,919.439,VALID,0,VALID,71.1798,VALID,256.355,VALID,24.3593,VALID,122,VALID,0.805859,
2016-01-26, 12:01:04,VALID,919.414,VALID,0,VALID,70.9893,VALID,255.28,VALID,24.3983,VALID,50,VALID,3.12539,
2016-01-26, 12:02:04,VALID,919.3,VALID,0,VALID,70.1583,VALID,285.041,VALID,24.3593,VALID,94,VALID,0.919531,
2016-01-26, 12:03:04,VALID,919.379,VALID,0,VALID,72.3462,VALID,423.748,VALID,24.4178,VALID,110,VALID,0.0609375,
2016-01-26, 12:04:04,VALID,919.348,VALID,0,VALID,71.2637,VALID,379.804,VALID,24.535,VALID,50,VALID,1.98594,
2016-01-26, 12:05:04,VALID,919.351,VALID,0,VALID,72.4529,VALID,332.101,VALID,24.5935,VALID,35,VALID,0.0417969,
2016-01-26, 12:06:04,VALID,919.315,VALID,0,VALID,72.6664,VALID,284.182,VALID,24.7107,VALID,41,VALID,0,
2016-01-26, 12:07:04,VALID,919.347,VALID,0,VALID,72.7808,VALID,246.792,VALID,24.8278,VALID,36,VALID,0,
2016-01-26, 12:08:04,VALID,919.329,VALID,0,VALID,72.0794,VALID,235.081,VALID,24.9059,VALID,123,VALID,0,
2016-01-26, 12:09:04,VALID,919.307,VALID,0,VALID,72.148,VALID,214.023,VALID,24.9645,VALID,123,VALID,0,
2016-01-26, 12:10:04,VALID,919.334,VALID,0,VALID,70.2345,VALID,204.675,VALID,24.9664,VALID,133,VALID,0.639063,
2016-01-26, 12:11:04,VALID,919.28,VALID,0,VALID,69.4341,VALID,199.948,VALID,24.7674,VALID,98,VALID,0.189844,
2016-01-26, 12:12:04,VALID,919.307,VALID,0,VALID,69.8991,VALID,190.708,VALID,24.7107,VALID,118,VALID,1.68867,
2016-01-26, 12:13:04,VALID,919.269,VALID,0,VALID,70.326,VALID,171.798,VALID,24.6326,VALID,108,VALID,0.580469,
2016-01-26, 12:14:04,VALID,919.253,VALID,0,VALID,72.27,VALID,157.079,VALID,24.6345,VALID,87,VALID,0.21875,
2016-01-26, 12:15:04,VALID,919.262,VALID,0,VALID,70.0287,VALID,145.798,VALID,24.5545,VALID,94,VALID,1.96914,
2016-01-26, 12:16:04,VALID,919.238,VALID,0,VALID,71.8431,VALID,133.872,VALID,24.5155,VALID,69,VALID,0.235156,
2016-01-26, 12:17:04,VALID,919.141,VALID,0,VALID,72.0718,VALID,129.359,VALID,24.4374,VALID,55,VALID,1.85469,